N1OF Weather Reports


time (UTC)temp
F
wind
direction
speed
knots
gust
knots
rain 1hr
in
rain 24hr
in
rain mn
in
humidity
%
barometer
mb
20260503233301 53 234 0.0 7.0 0.00 0.00 0.00 62 1013.3
20260503232758 53 302 3.5 7.8 0.00 0.00 0.00 61 1013.1
20260503232255 53 153 1.7 5.2 0.00 0.00 0.00 60 1013.4
20260503231753 53 159 2.6 9.6 0.00 0.00 0.00 60 1013.2
20260503231250 53 290 3.5 8.7 0.00 0.00 0.00 61 1013.0
20260503230746 53 173 4.3 5.2 0.00 0.00 0.00 60 1013.2
20260503230244 54 263 4.3 11.3 0.00 0.00 0.00 59 1013.3
20260503225741 54 260 4.3 6.1 0.00 0.00 0.00 60 1013.3
20260503225241 54 222 1.7 2.6 0.00 0.00 0.00 60 1013.4
20260503224738 54 310 2.6 5.2 0.00 0.00 0.00 58 1013.4
20260503224236 55 93 2.6 11.3 0.00 0.00 0.00 59 1013.2
20260503223733 56 223 5.2 8.7 0.00 0.00 0.00 57 1013.4
20260503223231 56 199 1.7 8.7 0.00 0.00 0.00 56 1013.5
20260503222727 56 288 7.8 15.6 0.00 0.00 0.00 56 1013.4
20260503222225 56 287 5.2 8.7 0.00 0.00 0.00 58 1013.4
20260503221723 57 215 3.5 7.8 0.00 0.00 0.00 57 1013.3
20260503221221 58 196 7.0 15.6 0.00 0.00 0.00 54 1013.0
20260503220717 60 273 3.5 9.6 0.00 0.00 0.00 37 1013.1
20260503220214 60 170 7.8 11.3 0.00 0.00 0.00 38 1012.8
20260503215710 60 238 2.6 6.1 0.00 0.00 0.00 37 1012.9
20260503215208 61 166 5.2 9.6 0.00 0.00 0.00 36 1012.9
20260503214706 61 18 3.5 9.6 0.00 0.00 0.00 37 1012.8
20260503214202 61 155 5.2 8.7 0.00 0.00 0.00 36 1012.9
20260503213701 61 232 3.5 6.1 0.00 0.00 0.00 36 1013.0
20260503213157 61 140 7.0 12.2 0.00 0.00 0.00 36 1013.0
20260503212654 61 297 2.6 9.6 0.00 0.00 0.00 37 1013.0
20260503212152 61 211 4.3 7.0 0.00 0.00 0.00 37 1012.8
20260503211650 61 231 5.2 12.2 0.00 0.00 0.00 37 1012.8
20260503211144 61 239 3.5 6.1 0.00 0.00 0.00 37 1013.1
20260503210641 61 232 4.3 16.5 0.00 0.00 0.00 37 1013.1
20260503210138 61 311 3.5 8.7 0.00 0.00 0.00 36 1013.1
20260503205634 61 289 3.5 18.2 0.00 0.00 0.00 36 1013.1
20260503205130 61 245 5.2 7.0 0.00 0.00 0.00 36 1013.2
20260503204621 61 232 7.8 9.6 0.00 0.00 0.00 36 1013.3
20260503204119 61 232 3.5 9.6 0.00 0.00 0.00 36 1013.2
20260503203616 62 226 7.8 9.6 0.00 0.00 0.00 36 1013.4
20260503203113 62 274 3.5 15.6 0.00 0.00 0.00 35 1013.3
20260503202610 62 357 5.2 8.7 0.00 0.00 0.00 34 1013.5
20260503202108 62 236 5.2 12.2 0.00 0.00 0.00 34 1013.7
20260503201606 62 310 1.7 6.1 0.00 0.00 0.00 34 1013.3
20260503201103 62 253 7.8 12.2 0.00 0.00 0.00 33 1013.7
20260503200559 62 156 6.1 12.2 0.00 0.00 0.00 36 1013.6
20260503200056 62 61 6.1 14.8 0.00 0.00 0.00 35 1013.8
20260503195548 61 266 4.3 8.7 0.00 0.00 0.00 36 1013.8
20260503195044 62 174 4.3 9.6 0.00 0.00 0.00 35 1013.6
20260503194542 63 3 7.0 13.0 0.00 0.00 0.00 34 1013.8
20260503194041 63 261 5.2 11.3 0.00 0.00 0.00 34 1014.1
20260503193539 62 148 5.2 8.7 0.00 0.00 0.00 34 1013.9
20260503193039 62 253 7.0 13.0 0.00 0.00 0.00 34 1014.1
20260503192536 62 232 5.2 8.7 0.00 0.00 0.00 34 1014.1
20260503192031 62 239 7.0 13.0 0.00 0.00 0.00 35 1014.1
20260503191528 62 188 5.2 11.3 0.00 0.00 0.00 35 1014.3
20260503191025 62 266 4.3 12.2 0.00 0.00 0.00 34 1014.3
20260503190522 62 252 7.0 11.3 0.00 0.00 0.00 34 1014.4
20260503190019 62 222 3.5 8.7 0.00 0.00 0.00 35 1014.5
20260503185515 61 186 3.5 7.8 0.00 0.00 0.00 37 1014.5
20260503185015 61 283 4.3 19.1 0.00 0.00 0.00 36 1014.7
20260503184512 62 189 5.2 11.3 0.00 0.00 0.00 36 1014.8
20260503184008 61 302 2.6 8.7 0.00 0.00 0.00 35 1014.9
20260503183505 62 235 5.2 11.3 0.00 0.00 0.00 35 1014.8
20260503183001 61 177 2.6 7.0 0.00 0.00 0.00 34 1014.9
20260503182500 62 262 7.0 11.3 0.00 0.00 0.00 34 1015.1
20260503181958 61 296 6.1 8.7 0.00 0.00 0.00 36 1015.1
20260503181455 62 301 1.7 11.3 0.00 0.00 0.00 36 1015.1
20260503180950 61 219 5.2 12.2 0.00 0.00 0.00 36 1015.2
20260503180449 62 203 6.1 9.6 0.00 0.00 0.00 34 1015.1
20260503175945 62 301 4.3 8.7 0.00 0.00 0.00 34 1015.3
20260503175443 61 209 6.1 12.2 0.00 0.00 0.00 34 1015.3
20260503174939 62 197 5.2 7.8 0.00 0.00 0.00 34 1015.4
20260503174438 61 230 3.5 5.2 0.00 0.00 0.00 35 1015.3
20260503173938 61 314 5.2 13.0 0.00 0.00 0.00 34 1015.6
20260503173434 62 288 5.2 7.8 0.00 0.00 0.00 34 1015.7
20260503172931 62 224 5.2 11.3 0.00 0.00 0.00 32 1015.5
20260503172428 61 222 5.2 7.8 0.00 0.00 0.00 32 1015.7
20260503171924 61 291 5.2 18.2 0.00 0.00 0.00 33 1015.8
20260503171421 61 283 3.5 7.0 0.00 0.00 0.00 34 1015.9
20260503170919 62 260 3.5 7.0 0.00 0.00 0.00 33 1015.8
20260503170415 61 195 3.5 7.0 0.00 0.00 0.00 35 1015.9
20260503150807 56 264 0.9 7.0 0.00 0.00 0.00 46 1016.9
20260503150303 55 165 2.6 7.0 0.00 0.00 0.00 46 1016.8
20260503140228 52 179 5.2 7.8 0.00 0.00 0.00 50 1017.3
20260503131157 50 328 5.2 8.7 0.00 0.00 0.00 52 1017.4
20260503130654 49 191 1.7 5.2 0.00 0.00 0.00 53 1017.3
20260503130152 49 310 1.7 3.5 0.00 0.00 0.00 53 1017.6
20260503120123 44 303 2.6 5.2 0.00 0.00 0.00 60 1017.6
20260503110551 36 121 0.0 0.0 0.00 0.00 0.00 81 1017.1
20260503090438 33 158 0.0 0.0 0.00 0.00 0.00 88 1017.2
20260503081404 33 273 0.0 0.0 0.00 0.00 0.00 88 1017.2
20260503080901 33 284 0.0 0.0 0.00 0.00 0.00 88 1017.1
20260503080358 33 284 0.0 0.0 0.00 0.00 0.00 88 1017.2
20260503072834 33 284 0.0 0.0 0.00 0.00 0.00 87 1017.2
20260503072331 33 284 0.0 0.0 0.00 0.00 0.00 87 1017.3
20260503071827 33 284 0.0 0.0 0.00 0.00 0.00 87 1017.4
20260503071325 33 284 0.0 0.0 0.00 0.00 0.00 87 1017.3
20260503070821 33 284 0.0 0.0 0.00 0.00 0.00 87 1017.6
20260503070319 33 284 0.0 0.0 0.00 0.00 0.00 87 1017.6
20260503060244 34 287 0.0 0.0 0.00 0.00 0.00 84 1017.6
20260503054731 35 287 0.0 0.0 0.00 0.00 0.00 83 1017.7
20260503054228 35 287 0.0 0.0 0.00 0.00 0.00 83 1017.7
20260503053726 35 287 0.0 0.0 0.00 0.00 0.00 83 1017.6
20260503053225 35 304 0.0 0.0 0.00 0.00 0.00 81 1017.6
20260503052720 36 304 0.0 0.0 0.00 0.00 0.00 81 1017.6
20260503052217 36 262 0.0 0.0 0.00 0.00 0.00 81 1017.5
20260503051712 36 263 0.0 0.0 0.00 0.00 0.00 80 1017.9
20260503051210 36 264 0.0 0.0 0.00 0.00 0.00 80 1017.8
20260503050707 36 261 0.0 0.0 0.00 0.00 0.00 79 1017.9
20260503050203 37 261 0.0 0.0 0.00 0.00 0.00 78 1017.8
20260503045701 37 346 0.0 0.0 0.00 0.00 0.00 78 1017.7
20260503045158 37 276 0.0 0.0 0.00 0.00 0.00 78 1017.8
20260503044654 36 300 0.0 0.9 0.00 0.00 0.00 80 1017.8
20260503044152 36 76 0.0 0.0 0.00 0.00 0.00 79 1017.7
20260503043648 37 120 0.0 0.0 0.00 0.00 0.00 78 1017.7
20260503043146 37 120 0.0 0.0 0.00 0.00 0.00 78 1017.7
20260503042642 37 120 0.0 0.0 0.00 0.00 0.00 78 1017.8
20260503042138 37 140 0.0 0.0 0.00 0.00 0.00 77 1017.7
20260503041635 37 140 0.0 0.0 0.00 0.00 0.00 77 1017.7
20260503041133 37 140 0.0 0.0 0.00 0.00 0.00 77 1017.9
20260503040630 37 140 0.0 0.0 0.00 0.00 0.00 77 1017.7
20260503040127 38 140 0.0 0.0 0.00 0.00 0.00 76 1017.6
20260503035623 38 140 0.0 0.0 0.00 0.00 0.00 77 1017.8
20260503035121 38 140 0.0 0.0 0.00 0.00 0.00 76 1017.8
20260503034618 38 141 0.0 0.0 0.00 0.00 0.00 76 1017.7
20260503034116 38 141 0.0 0.0 0.00 0.00 0.00 76 1017.7
20260503033613 38 141 0.0 0.0 0.00 0.00 0.00 76 1017.8
20260503033110 38 141 0.0 0.0 0.00 0.00 0.00 76 1017.6
20260503032609 38 141 0.0 0.0 0.00 0.00 0.00 76 1017.7
20260503032107 39 141 0.0 0.0 0.00 0.00 0.00 76 1017.6
20260503031604 39 141 0.0 0.0 0.00 0.00 0.00 75 1018.0
20260503031101 39 141 0.0 0.0 0.00 0.00 0.00 75 1017.8
20260503030557 40 141 0.0 0.0 0.00 0.00 0.00 74 1017.8
20260503030054 40 141 0.0 0.0 0.00 0.00 0.00 74 1017.8
20260503025551 40 141 0.0 0.0 0.00 0.00 0.00 74 1017.9
20260503025049 40 141 0.0 0.0 0.00 0.00 0.00 74 1017.8
20260503024544 40 141 0.0 0.0 0.00 0.00 0.00 74 1017.9
20260503024042 40 141 0.0 0.0 0.00 0.00 0.00 73 1017.9
20260503023538 41 141 0.0 0.0 0.00 0.00 0.00 73 1018.1
20260503023036 41 141 0.0 0.0 0.00 0.00 0.00 72 1018.1
20260503022532 41 141 0.0 0.0 0.00 0.00 0.00 71 1018.1
20260503022027 41 141 0.0 0.0 0.00 0.00 0.00 72 1018.1
20260503021524 41 141 0.0 0.0 0.00 0.00 0.00 71 1017.9
20260503021021 41 141 0.0 0.0 0.00 0.00 0.00 71 1017.9
20260503020518 41 141 0.0 0.0 0.00 0.00 0.00 70 1017.8
20260503020015 42 141 0.0 0.0 0.00 0.00 0.00 69 1017.9
20260503015511 42 141 0.0 0.0 0.00 0.00 0.00 69 1017.9
20260503015008 42 141 0.0 0.0 0.00 0.00 0.00 68 1017.8
20260503014504 42 142 0.0 0.0 0.00 0.00 0.00 67 1017.9
20260503014003 42 142 0.0 0.0 0.00 0.00 0.00 65 1017.6
20260503013459 43 142 0.0 0.0 0.00 0.00 0.00 64 1017.9
20260503012956 43 142 0.0 0.0 0.00 0.00 0.00 62 1017.7
20260503012455 43 142 0.0 0.0 0.00 0.00 0.00 64 1017.6
20260503011950 43 142 0.0 0.0 0.00 0.00 0.00 64 1017.7
20260503011447 43 161 0.0 0.0 0.00 0.00 0.00 61 1017.9
20260503010944 43 161 0.0 0.0 0.00 0.00 0.00 59 1017.8
20260503010441 44 161 0.0 0.0 0.00 0.00 0.00 57 1017.8
20260503005938 44 161 0.0 0.0 0.00 0.00 0.00 57 1017.6
20260503005436 44 161 0.0 0.0 0.00 0.00 0.00 56 1017.6
20260503004932 44 190 0.0 0.0 0.00 0.00 0.00 55 1017.8
20260503004429 45 198 0.0 0.0 0.00 0.00 0.00 54 1017.8
20260503003927 45 251 0.0 0.0 0.00 0.00 0.00 51 1017.7
20260503003423 46 186 0.9 0.9 0.00 0.00 0.00 50 1017.8
20260503002921 46 208 0.0 0.9 0.00 0.00 0.00 49 1017.7
20260503002418 46 181 0.9 0.9 0.00 0.00 0.00 48 1017.7
20260503001914 46 327 0.0 0.9 0.00 0.00 0.00 46 1017.6
20260503001410 47 330 0.0 0.9 0.00 0.00 0.00 46 1017.5
20260503000908 47 319 0.9 1.7 0.00 0.00 0.00 46 1017.4
20260503000407 47 344 2.6 2.6 0.00 0.00 0.00 45 1017.4
20260502235902 47 296 1.7 2.6 0.00 0.00 0.00 44 1017.6
20260502235359 47 319 0.9 0.9 0.00 0.00 0.00 46 1017.5
20260502234856 48 275 1.7 3.5 0.00 0.00 0.00 44 1017.4
20260502234353 48 280 1.7 2.6 0.00 0.00 0.00 45 1017.6
20260502233849 47 40 0.0 0.0 0.00 0.00 0.00 48 1017.5